TimePDT,TemperatureF,Dew PointF,Humidity,Sea Level PressureIn,VisibilityMPH,Wind Direction,Wind SpeedMPH,Gust SpeedMPH,PrecipitationIn,Events,Conditions,WindDirDegrees,DateUTC
12:56 AM,46.9,45.0,93,30.30,10.0,Calm,Calm,-,N/A,,Clear,0,2014-04-07 07:56:00
1:56 AM,45.0,43.0,93,30.29,10.0,Calm,Calm,-,N/A,,Clear,0,2014-04-07 08:56:00
2:56 AM,44.1,42.1,93,30.28,10.0,Calm,Calm,-,N/A,,Clear,0,2014-04-07 09:56:00
3:42 AM,43.0,39.9,89,30.27,10.0,Calm,Calm,-,N/A,,Scattered Clouds,0,2014-04-07 10:42:00
3:56 AM,44.1,42.1,93,30.27,10.0,Calm,Calm,-,N/A,,Scattered Clouds,0,2014-04-07 10:56:00
4:25 AM,43.0,39.9,89,30.27,10.0,Calm,Calm,-,N/A,,Mostly Cloudy,0,2014-04-07 11:25:00
4:56 AM,45.0,43.0,93,30.27,7.0,Calm,Calm,-,N/A,,Overcast,0,2014-04-07 11:56:00
5:02 AM,45.0,43.0,93,30.26,1.5,Calm,Calm,-,N/A,,Overcast,0,2014-04-07 12:02:00
5:09 AM,45.0,43.0,93,30.26,0.8,Calm,Calm,-,N/A,,Mist,0,2014-04-07 12:09:00
5:25 AM,46.0,45.0,96,30.26,0.2,Calm,Calm,-,N/A,Fog,Fog,0,2014-04-07 12:25:00
5:56 AM,46.0,45.0,96,30.26,0.2,Calm,Calm,-,N/A,Fog,Fog,0,2014-04-07 12:56:00
6:24 AM,46.9,46.0,97,30.25,0.5,Calm,Calm,-,N/A,Fog,Fog,0,2014-04-07 13:24:00
6:35 AM,46.9,46.0,97,30.25,1.8,Calm,Calm,-,N/A,,Overcast,0,2014-04-07 13:35:00
6:38 AM,46.9,46.0,97,30.25,3.0,Calm,Calm,-,N/A,,Overcast,0,2014-04-07 13:38:00
6:52 AM,46.4,46.4,100,30.25,1.8,Calm,Calm,-,N/A,,Overcast,0,2014-04-07 13:52:00
6:56 AM,48.0,46.0,93,30.25,0.8,Calm,Calm,-,N/A,,Overcast,0,2014-04-07 13:56:00
7:10 AM,48.0,46.9,96,30.25,0.2,Calm,Calm,-,N/A,Fog,Fog,0,2014-04-07 14:10:00
7:56 AM,48.0,46.9,96,30.26,0.2,NE,4.6,-,N/A,Fog,Fog,40,2014-04-07 14:56:00
9:13 AM,48.9,46.9,93,30.24,0.8,NE,4.6,-,N/A,,Mist,50,2014-04-07 16:13:00
9:21 AM,48.9,48.0,97,30.24,1.2,Calm,Calm,-,N/A,,Overcast,0,2014-04-07 16:21:00
9:38 AM,48.9,48.0,97,30.23,0.8,Calm,Calm,-,N/A,,Overcast,0,2014-04-07 16:38:00
9:47 AM,48.9,48.0,97,30.23,1.0,Calm,Calm,-,N/A,,Overcast,0,2014-04-07 16:47:00
9:56 AM,48.9,48.0,97,30.24,2.0,Calm,Calm,-,N/A,,Overcast,0,2014-04-07 16:56:00
10:45 AM,52.0,48.0,86,30.23,7.0,Calm,Calm,-,N/A,,Overcast,0,2014-04-07 17:45:00
10:56 AM,54.0,48.9,83,30.23,10.0,NNE,3.5,-,N/A,,Scattered Clouds,30,2014-04-07 17:56:00
11:56 AM,57.9,48.9,72,30.21,10.0,Calm,Calm,-,N/A,,Partly Cloudy,0,2014-04-07 18:56:00
12:56 PM,64.0,50.0,60,30.19,10.0,East,3.5,-,N/A,,Clear,90,2014-04-07 19:56:00
1:56 PM,68.0,53.1,59,30.17,10.0,Variable,3.5,-,N/A,,Scattered Clouds,0,2014-04-07 20:56:00
2:56 PM,70.0,53.1,55,30.14,10.0,East,5.8,-,N/A,,Clear,90,2014-04-07 21:56:00
3:56 PM,72.0,52.0,49,30.12,10.0,East,6.9,-,N/A,,Clear,100,2014-04-07 22:56:00
4:56 PM,73.0,53.1,49,30.10,10.0,SE,8.1,-,N/A,,Clear,140,2014-04-07 23:56:00
5:56 PM,72.0,53.1,51,30.10,10.0,West,9.2,-,N/A,,Clear,270,2014-04-08 00:56:00
6:56 PM,70.0,54.0,57,30.10,10.0,WSW,11.5,-,N/A,,Clear,240,2014-04-08 01:56:00
7:56 PM,64.9,53.1,65,30.12,10.0,West,9.2,-,N/A,,Clear,280,2014-04-08 02:56:00
8:56 PM,61.0,52.0,72,30.13,10.0,NW,4.6,-,N/A,,Clear,320,2014-04-08 03:56:00
9:56 PM,57.9,50.0,75,30.16,10.0,WSW,5.8,-,N/A,,Clear,250,2014-04-08 04:56:00
10:56 PM,55.0,48.0,77,30.17,10.0,WSW,3.5,-,N/A,,Clear,240,2014-04-08 05:56:00
11:56 PM,53.1,46.9,80,30.19,10.0,WNW,3.5,-,N/A,,Partly Cloudy,300,2014-04-08 06:56:00